Regional Weather Roundup
Issued by NWS

Home | Current Version | Previous Version | Text Only | Print | Product List | Glossary On
Versions: 1 2 3 4 5 6 7 8 9 10 11 12 13 14 15 16 17 18 19 20 21 22 23 24 25 26 27 28 29 30 31 32 33 34 35 36 37 38 39 40 41 42 43 44 45 46 47 48 49 50
000
ASUS43 KBIS 231120
RWRND

NORTH DAKOTA REGIONAL WEATHER ROUNDUP
NATIONAL WEATHER SERVICE BISMARCK ND
600 AM CDT THU OCT 23 2014

NOTE: "FAIR" INDICATES FEW OR NO CLOUDS BELOW 12,000 FEET WITH NO
SIGNIFICANT WEATHER AND/OR OBSTRUCTIONS TO VISIBILITY.


NDZ001>003-009>011-017-231200-
NORTHWEST NORTH DAKOTA

CITY           SKY/WX    TMP DP  RH WIND       PRES   REMARKS
WILLISTON      CLEAR     36  31  82 S3        29.85S
MINOT          CLEAR     43  34  70 SW10      29.84S
MINOT AFB      CLEAR     44  35  72 SW13      29.83S
$$

NDZ018>021-031>035-040>046-231200-
SOUTHWEST NORTH DAKOTA

CITY           SKY/WX    TMP DP  RH WIND       PRES   REMARKS
BISMARCK       CLEAR     33  30  88 CALM      29.92S
DICKINSON      CLEAR     38  27  64 SW3       29.88S
GARRISON         N/A     42  37  82 CALM      29.87S
HETTINGER ARPT CLEAR     31  25  78 CALM      29.92F
$$

NDZ004>008-012>016-024-026-027-054-231200-
NORTHEAST NORTH DAKOTA

CITY           SKY/WX    TMP DP  RH WIND       PRES   REMARKS
GRAND FORKS    PTCLDY    47  44  90 SW7       29.83S
GRND FRKS AFB  CLEAR     45  45  99 W7        29.84R
DEVILS LAKE    CLEAR     46  36  66 SW9       29.84R
$$

NDZ022-023-025-028>030-036>039-047>053-231200-
SOUTHEAST NORTH DAKOTA

CITY           SKY/WX    TMP DP  RH WIND       PRES   REMARKS
FARGO          CLEAR     43  41  93 S7        29.90R
JAMESTOWN      CLEAR     42  36  79 SW6       29.89S
$$




USA.gov is the U.S. government's official web portal to all federal, state and local government web resources and services.